Weather in Salisbury

United Kingdom     51°04′19″N   1°48′02″W
temp.,
°C
wind,
m/s
gust,
m/s
humid.,
%
clouds,
%
prec.,
mm/h
press.,
hPa
HPBL,
m
18 september, sat
sat1801:00+12ese119612 0.0 101412
04:00+13ne229593 0.0 101317
07:00+14e2587100 0.0 1014124
10:00+17se368099 0.0 1014253
13:00+20se5663100 0.0 1013598
16:00+21se56603 0.0 1013949
19:00+16se337810 0.0 101247
22:00+14se1183100 0.0 101311
19 september, sun
sun1901:00+15nnw1178100 0.1 101311
04:00+14nw359082 0.1 1013129
07:00+13nw2588100 0.4 1013120
10:00+16wnw4668100 0.0 1015477
13:00+19nw4555100 0.0 1015988
16:00+18wnw6663100 0.0 1015815
19:00+15wnw5975100 0.0 1016282
22:00+13nw41084100 0.0 1018246
20 september, mon
mon2001:00+12nnw5109098 0.0 1019259
04:00+11nnw5118173 0.0 1020250
07:00+9nnw410903 0.0 1022217
10:00+15n58680 0.0 1024457
13:00+19n55580 0.0 10241096
16:00+20n445353 0.0 10251491
19:00+16nnw476363 0.0 1026156
22:00+13nnw336825 0.0 102836
21 september, tue
tue2101:00+11n227919 0.0 102922
04:00+10n227987 0.0 103018
07:00+10nnw2287100 0.0 103022
10:00+15nnw2366100 0.0 1031301
13:00+19n2358100 0.0 1031880
16:00+20nnw2354100 0.0 10301004
19:00+16e017053 0.0 103111
22:00+14w1182100 0.0 103111
22 september, wed
wed2201:00+13nw118597 0.0 103110
04:00+12wnw11860 0.0 103010
07:00+11w11890 0.0 103010
10:00+18w23670 0.0 1030343
13:00+22w34510 0.0 1028866
16:00+22wnw56534 0.0 10261050
19:00+16wnw510775 0.0 1026271
22:00+13wnw51187100 0.0 1026253